Content
SEND FEEDBACK

Daily
Averages
Monthly
Summary
Canada

DRUMHELLER, ALBERTA


Home > North America > Canada > Alberta
Elevation: 2254 feet     Latitude: 51 28N     Longitude: 112 43W

WEATHER
 
SELECT A DAY
Number of Records: 140,271;   Date Range: 1/1/95 - 10/24/14
 
SHARE

PRINT THIS DATA

[ ← Previous Day ]
WEATHER ALMANAC - JANUARY 20, 2013
[ Next Day → ]
[ °C ]   °F
Weather ElementAverageHighLow
Temperature1.6 °F6.1 °F (2:00 pm)-1.8 °F (6:00 am)
Dewpoint-5.4 °F (1:00 am)-9.6 °F (7:00 am)
Humidity70.9 %84 % (11:00 pm)53 % (11:00 am)
Barometer30.68 in30.79 in (7:00 am)30.51 in (11:00 pm)
Wind Speed5.1 mph13.8 mph (1:00 am)
Weather ElementAverage
Wind DirectionESE (115.6 °)

Weather ElementTotal
Precipitation---
Heating Degree Days62.9 (Base 65)
Averaged from 27 records on January 20, 2013
WEATHER CONDITIONS BREAKOUT
WIND DIRECTION BREAKOUT
WEATHER BY HOUR - JANUARY 20, 2013
[ °C ]   °F
Local TimeTemperatureDewpointHumidityBarometerVisibilityWind DirectionWind SpeedGust SpeedPrecipitationEventsConditions
1:00 AM5.5 °F0.0 °F78 %30.68 inNNE (20°)13.8 mph
2:00 AM3.7 °F-2.4 °F76 %30.72 inNNE (20°)10.4 mph
3:00 AM1.6 °F-4.4 °F76 %30.76 inNE (50°)12.7 mph
4:00 AM-0.4 °F-7.1 °F73 %30.77 inNE (40°)9.2 mph
5:00 AM-1.0 °F-8.0 °F57 %30.78 inNE (40°)6.9 mph
5:00 AM-1.1 °F-8.5 °F71 %30.78 inNE (40°)6.9 mph
6:00 AM-1.8 °F-9.2 °F71 %30.78 inNE (40°)3.5 mph
7:00 AM-1.8 °F-9.6 °F70 %30.79 inEast (90°)1.2 mph
8:00 AM-1.8 °F-9.6 °F70 %30.77 inSE (130°)3.5 mph
9:00 AM-1.7 °F-8.9 °F71 %30.76 inESE (120°)3.5 mph
10:00 AM-0.6 °F-8.3 °F70 %30.76 inSSE (160°)2.3 mph
11:00 AM1.0 °F-8.0 °F53 %30.76 inSE (130°)2.3 mph
11:00 AM0.9 °F-7.6 °F68 %30.76 inSE (130°)2.3 mph
12:00 PM4.5 °F-6.2 °F62 %30.72 inSE (140°)2.3 mph
1:00 PM5.4 °F-5.1 °F62 %30.68 inESE (110°)2.3 mph
2:00 PM6.1 °F-4.0 °F63 %30.66 inSouth (170°)3.5 mph
3:00 PM5.5 °F-3.8 °F65 %30.65 inSE (140°)3.5 mph
4:00 PM4.5 °F-4.0 °F68 %30.63 inSSE (160°)3.5 mph
5:00 PM1.0 °F-5.0 °F64 %30.62 inSSE (160°)4.6 mph
5:00 PM1.2 °F-5.1 °F75 %30.62 inSSE (160°)4.6 mph
6:00 PM1.0 °F-4.5 °F77 %30.61 inSSE (150°)4.6 mph
7:00 PM1.9 °F-3.8 °F77 %30.58 inSSE (160°)4.6 mph
8:00 PM1.9 °F-3.6 °F77 %30.58 inSSE (150°)5.8 mph
9:00 PM1.9 °F-3.5 °F78 %30.56 inSSE (150°)6.9 mph
10:00 PM2.1 °F-2.6 °F81 %30.54 inSSE (160°)4.6 mph
11:00 PM2.0 °F-1.0 °F78 %30.51 inSSE (150°)4.6 mph
11:00 PM2.5 °F-1.5 °F84 %30.51 inSSE (150°)4.6 mph
Hourly data recorded from CWDZ, located miles away from Drumheller, Alberta







STORIES FROM OUR PARTNERS